Vorticity
4 5 8 9 5 5 7 -24 -6 6 4 4 -2 7 7 7 5 -1 2 10 6 4 3 3 6 6 4 4 3 5 0 2 1 1 -0 1 5 5 8 7 8 6 7 5 4 3 3 5 5
5 6 7 5 5 7 6 -8 -9 3 -4 2 9 11 14 8 10 9 7 8 6 3 6 6 6 7 5 4 5 4 2 2 3 3 3 3 2 3 6 8 7 6 7 9 7 4 4 4 5
7 5 8 4 3 7 7 3 3 1 2 5 -0 4 3 6 5 9 8 4 5 9 7 6 5 4 4 4 4 4 4 3 4 4 4 5 5 6 7 8 8 9 5 6 9 5 6 3 6
7 7 8 5 1 1 10 11 6 0 3 -3 -0 -1 4 3 5 5 10 8 5 6 7 5 6 6 5 3 3 3 3 4 3 4 4 3 2 2 -1 2 5 7 8 8 7 9 4 2 8
7 7 8 9 7 3 3 -0 4 4 3 2 2 3 2 2 3 3 9 8 8 8 7 6 6 6 4 3 3 3 4 5 4 4 3 3 5 6 6 7 3 5 7 7 9 9 10 6 5
8 7 9 11 10 6 5 3 -17 -6 -1 3 -4 0 3 4 4 4 2 5 5 7 8 6 5 5 5 5 5 5 4 5 5 6 4 4 5 5 6 7 9 7 8 8 9 9 14 8 4
6 7 7 7 8 11 10 9 5 8 7 5 3 5 5 2 5 7 4 2 9 6 7 7 5 5 5 5 3 2 4 6 5 4 6 6 5 5 6 6 6 9 10 9 7 10 4 14 8
6 6 8 10 8 6 5 1 4 8 9 9 10 11 10 8 6 3 4 1 -2 6 6 7 5 4 4 4 4 4 2 2 4 5 4 7 4 5 4 5 6 6 8 11 10 9 12 8 15
8 6 5 7 5 5 7 10 7 10 9 9 11 7 7 10 12 8 5 8 2 7 6 4 5 5 5 5 4 4 4 4 3 3 5 5 6 5 5 6 5 5 6 8 8 11 6 2 9
6 9 8 9 9 10 11 10 10 8 8 8 6 6 8 3 4 7 5 7 8 5 8 6 5 6 4 5 3 4 4 4 5 6 6 6 6 4 5 8 5 4 6 7 5 2 8 9 11
5 9 4 0 2 3 2 5 10 10 8 6 6 13 -7 42 41 41 22 9 14 14 6 9 8 7 7 4 7 6 6 4 2 3 4 4 6 6 7 4 5 6 5 6 8 10 7 8 6
11 16 14 13 12 14 15 17 7 7 12 11 12 15 13 23 3 18 2 5 13 13 6 5 5 7 7 7 7 5 3 7 10 5 4 5 4 4 5 8 6 4 6 6 8 6 10 7 8
3 2 2 5 7 5 3 3 6 7 8 -0 -3 5 11 11 12 11 12 -9 9 14 14 12 6 12 9 7 5 5 6 5 5 -3 0 2 -1 4 7 4 5 6 3 3 0 6 8 10 6
2 2 -4 3 3 -1 -1 -2 -4 -6 -6 4 7 2 2 -3 7 10 12 13 -2 10 18 14 14 14 11 7 6 7 8 11 3 5 11 -2 1 4 6 5 8 6 5 4 2 4 6 9 11
3 2 -4 8 3 4 3 5 1 2 1 9 5 2 13 6 3 7 8 5 11 6 10 12 11 9 15 12 15 14 6 6 9 8 10 8 25 1 -8 7 5 7 3 5 4 5 8 8 4
-1 -5 3 4 -1 -1 3 2 5 7 5 6 2 5 10 8 3 -3 -2 2 9 10 16 12 10 11 4 7 9 10 10 13 4 27 10 -2 -0 8 -2 7 9 4 4 2 2 1 1 1 7
4 11 -6 -20 9 2 6 10 11 6 5 5 6 8 8 2 -5 -5 5 5 3 10 -5 15 13 10 10 5 4 5 4 4 9 7 5 -12 10 -2 7 -1 6 6 6 3 6 5 2 4 5
0 7 12 20 7 2 9 4 7 2 0 2 2 34 23 -9 -10 -2 1 15 20 2 0 6 12 7 9 11 7 7 6 7 6 2 5 4 4 21 -1 -6 1 -2 5 5 3 6 6 6 1
4 2 8 10 9 10 11 2 11 1 7 11 30 -21 4 0 4 8 6 7 17 14 7 4 2 12 9 7 8 10 8 6 8 8 7 8 9 10 -9 27 2 3 1 3 5 1 4 5 4
17 16 16 10 11 5 4 2 6 4 6 14 -1 -2 6 6 17 15 16 16 14 11 13 20 18 8 5 13 9 7 8 8 8 6 8 7 6 6 9 -3 9 2 4 5 1 3 2 5 2
11 9 11 9 2 2 7 4 11 8 13 13 10 9 12 9 13 17 15 21 20 17 19 14 12 14 12 11 9 11 15 12 7 7 6 6 5 6 6 7 -24 45 -1 2 2 3 2 4 -0
7 7 7 5 2 6 0 22 12 16 7 1 3 3 14 17 15 12 16 14 12 19 21 27 15 9 11 11 11 9 8 8 11 12 8 7 6 7 4 7 13 -6 -10 2 -7 15 6 1 7
6 2 5 12 17 13 16 15 27 21 13 16 16 12 15 12 14 15 6 11 0 7 10 11 18 18 15 12 11 10 12 11 9 9 8 9 6 5 7 3 5 13 13 12 27 3 9 7 4
12 13 15 13 15 5 29 15 15 10 7 7 11 10 7 5 9 9 7 6 5 4 13 17 14 14 16 14 12 13 12 9 8 9 7 9 10 11 5 6 2 3 10 11 7 13 3 -7 28
11 9 18 17 9 18 16 11 3 1 6 3 13 13 4 10 7 1 2 7 19 18 15 14 17 16 13 15 14 16 16 16 21 17 9 9 11 8 9 8 9 5 5 4 9 10 -3 1 65
13 10 5 9 9 17 3 -0 1 3 12 22 11 0 -2 -0 2 9 21 13 11 9 12 13 13 11 9 10 13 11 5 5 7 9 11 12 12 12 9 9 12 9 10 7 10 6 5 -10 -26
13 11 10 10 3 4 1 9 13 23 28 27 22 22 20 20 12 9 12 22 26 28 27 23 19 20 19 19 19 22 23 15 12 9 0 1 8 6 6 5 3 8 10 5 3 3 2 9 15
8 12 12 7 9 12 8 17 8 19 4 -1 6 7 2 -2 11 15 21 10 8 21 25 25 25 22 19 24 18 21 20 27 32 37 44 52 49 26 8 1 6 6 6 8 4 4 5 13 11
9 11 9 6 13 15 15 13 6 16 8 5 3 2 6 -5 3 10 8 24 32 20 16 16 11 5 15 24 27 26 17 7 5 6 8 10 18 18 29 43 18 -2 11 8 4 2 5 -13 37
4 10 14 15 9 14 9 12 9 31 27 23 12 12 28 40 1 23 27 33 13 9 17 25 41 23 20 16 10 19 11 14 14 12 14 7 3 31 18 26 34 45 10 1 9 3 5 -70 24
Height
5855 5855 5855 5858 5862 5864 5863 5859 5854 5855 5859 5863 5863 5865 5865 5862 5862 5862 5865 5867 5864 5867 5865 5866 5865 5865 5865 5865 5865 5865 5865 5865 5864 5864 5863 5863 5862 5862 5862 5862 5862 5862 5861 5860 5860 5859 5858 5858 5857
5851 5852 5852 5854 5857 5861 5860 5856 5856 5855 5856 5858 5860 5860 5860 5857 5859 5860 5863 5863 5860 5862 5863 5861 5862 5862 5862 5862 5862 5862 5862 5862 5862 5861 5860 5860 5859 5859 5859 5858 5858 5858 5858 5858 5858 5857 5856 5855 5854
5847 5848 5848 5850 5854 5856 5855 5851 5851 5850 5851 5851 5854 5855 5854 5854 5855 5857 5857 5854 5854 5859 5859 5858 5857 5857 5858 5858 5858 5858 5858 5858 5858 5857 5857 5856 5856 5855 5855 5855 5855 5854 5854 5855 5855 5854 5854 5854 5851
5843 5844 5844 5847 5851 5853 5855 5852 5849 5845 5844 5846 5849 5848 5848 5848 5850 5852 5853 5852 5850 5853 5854 5853 5853 5853 5853 5853 5853 5853 5853 5854 5853 5854 5853 5853 5852 5851 5851 5851 5851 5850 5851 5850 5850 5850 5851 5852 5849
5838 5838 5839 5843 5846 5847 5847 5846 5840 5838 5840 5844 5845 5845 5842 5843 5845 5845 5847 5847 5845 5845 5848 5848 5850 5849 5849 5849 5849 5848 5848 5849 5850 5850 5849 5849 5848 5847 5847 5847 5846 5846 5846 5846 5846 5846 5847 5848 5847
5833 5832 5835 5838 5840 5840 5841 5838 5835 5834 5834 5840 5837 5838 5838 5838 5839 5841 5841 5839 5838 5839 5841 5843 5843 5845 5844 5844 5844 5844 5844 5844 5844 5845 5844 5844 5843 5843 5842 5843 5842 5842 5842 5841 5841 5843 5844 5844 5843
5826 5826 5830 5831 5832 5835 5836 5827 5831 5832 5833 5833 5836 5833 5831 5831 5830 5834 5837 5838 5834 5834 5834 5836 5836 5837 5838 5838 5837 5838 5839 5839 5839 5840 5840 5839 5839 5838 5837 5837 5837 5838 5838 5837 5838 5838 5839 5840 5840
5821 5821 5824 5825 5825 5826 5826 5824 5822 5826 5831 5830 5831 5828 5825 5824 5822 5825 5830 5830 5830 5826 5828 5829 5829 5830 5831 5831 5831 5832 5833 5832 5833 5834 5835 5836 5835 5834 5832 5833 5833 5833 5833 5834 5834 5834 5834 5834 5836
5816 5816 5820 5819 5817 5814 5818 5822 5820 5821 5823 5824 5823 5822 5821 5817 5817 5818 5823 5823 5820 5821 5820 5820 5821 5821 5823 5823 5824 5825 5826 5827 5828 5828 5828 5829 5830 5830 5829 5828 5828 5828 5828 5830 5830 5830 5830 5829 5830
5810 5811 5812 5812 5812 5811 5813 5813 5815 5815 5817 5817 5815 5813 5812 5812 5811 5810 5813 5811 5811 5812 5814 5814 5814 5814 5813 5815 5816 5817 5818 5819 5820 5820 5821 5823 5824 5824 5824 5824 5825 5824 5824 5824 5825 5826 5826 5825 5825
5803 5806 5805 5805 5804 5804 5807 5808 5807 5807 5810 5808 5806 5805 5805 5804 5803 5804 5805 5802 5801 5802 5805 5806 5805 5805 5806 5806 5807 5808 5809 5811 5812 5812 5814 5815 5817 5819 5820 5819 5819 5820 5819 5819 5820 5820 5821 5821 5820
5799 5800 5799 5800 5799 5799 5798 5800 5803 5802 5803 5799 5798 5799 5797 5795 5795 5793 5794 5795 5795 5795 5794 5796 5797 5796 5796 5796 5798 5799 5801 5802 5803 5804 5805 5807 5809 5811 5814 5814 5814 5813 5813 5814 5815 5815 5816 5818 5816
5795 5794 5793 5793 5794 5795 5793 5794 5793 5796 5794 5792 5792 5791 5789 5786 5786 5786 5785 5785 5785 5785 5783 5784 5785 5786 5787 5788 5787 5788 5791 5792 5794 5795 5798 5798 5799 5802 5805 5807 5807 5808 5808 5808 5809 5810 5811 5812 5813
5791 5790 5789 5788 5788 5785 5786 5787 5785 5787 5784 5784 5783 5782 5779 5775 5774 5775 5776 5773 5772 5775 5776 5776 5777 5779 5779 5777 5776 5779 5780 5780 5781 5783 5786 5788 5791 5794 5796 5798 5800 5801 5802 5803 5804 5805 5806 5807 5808
5783 5784 5784 5782 5778 5778 5778 5779 5776 5775 5774 5773 5772 5771 5769 5765 5761 5766 5766 5766 5766 5765 5765 5766 5768 5769 5770 5770 5771 5770 5773 5772 5771 5768 5772 5777 5781 5783 5786 5789 5792 5793 5794 5795 5797 5799 5799 5800 5801
5775 5776 5774 5771 5769 5770 5768 5769 5765 5762 5760 5759 5758 5757 5757 5750 5751 5755 5754 5754 5755 5755 5756 5754 5755 5758 5759 5759 5760 5761 5761 5763 5765 5765 5766 5767 5767 5770 5774 5778 5783 5786 5785 5788 5790 5791 5792 5794 5796
5766 5766 5764 5761 5756 5758 5757 5756 5754 5750 5747 5746 5743 5742 5740 5730 5738 5743 5741 5740 5741 5744 5744 5742 5741 5741 5745 5747 5747 5748 5749 5750 5752 5756 5758 5762 5756 5755 5759 5766 5771 5775 5778 5780 5780 5783 5784 5786 5788
5755 5753 5753 5751 5744 5744 5743 5745 5741 5734 5731 5727 5723 5726 5720 5711 5716 5723 5728 5729 5728 5729 5727 5728 5726 5726 5727 5732 5734 5734 5736 5739 5740 5742 5745 5749 5752 5749 5744 5751 5759 5761 5765 5770 5773 5775 5775 5777 5779
5743 5741 5740 5740 5735 5733 5735 5737 5734 5727 5727 5723 5723 5713 5707 5698 5699 5706 5710 5714 5714 5710 5709 5709 5710 5712 5713 5713 5717 5721 5722 5725 5728 5730 5735 5737 5740 5738 5739 5744 5745 5747 5751 5760 5763 5766 5767 5768 5770
5728 5724 5726 5729 5723 5719 5722 5726 5726 5724 5720 5707 5703 5699 5695 5688 5687 5693 5697 5696 5696 5695 5691 5690 5691 5694 5697 5697 5697 5703 5707 5710 5714 5716 5719 5724 5728 5731 5734 5730 5725 5735 5739 5746 5752 5756 5758 5759 5759
5716 5712 5715 5713 5709 5710 5708 5711 5707 5715 5705 5688 5689 5687 5683 5679 5676 5677 5680 5679 5675 5672 5674 5673 5673 5674 5675 5679 5681 5684 5690 5695 5698 5702 5705 5708 5712 5716 5719 5721 5722 5726 5727 5734 5738 5745 5748 5749 5750
5705 5700 5698 5696 5697 5697 5699 5684 5694 5696 5687 5675 5672 5673 5673 5671 5668 5666 5665 5663 5660 5658 5656 5656 5657 5657 5657 5659 5664 5667 5672 5676 5680 5685 5690 5695 5698 5702 5705 5710 5714 5715 5715 5723 5726 5731 5736 5736 5738
5697 5688 5689 5687 5684 5678 5695 5673 5674 5676 5666 5665 5665 5664 5661 5659 5657 5655 5652 5650 5648 5645 5643 5642 5641 5640 5640 5641 5644 5648 5654 5659 5663 5666 5671 5676 5681 5685 5690 5694 5702 5703 5700 5710 5714 5717 5720 5720 5725
5680 5678 5677 5676 5674 5669 5680 5663 5659 5660 5659 5657 5656 5653 5650 5648 5644 5641 5640 5637 5633 5630 5627 5625 5625 5625 5624 5624 5626 5629 5634 5639 5644 5648 5652 5658 5664 5668 5675 5679 5681 5690 5694 5695 5702 5706 5701 5701 5707
5671 5666 5663 5661 5662 5659 5663 5652 5646 5650 5649 5648 5644 5641 5637 5635 5632 5630 5628 5623 5619 5615 5612 5611 5609 5609 5609 5610 5611 5613 5616 5620 5624 5628 5633 5637 5644 5651 5657 5660 5667 5672 5679 5685 5688 5692 5682 5672 5666
5658 5654 5651 5646 5651 5650 5651 5642 5638 5641 5640 5636 5634 5629 5625 5622 5621 5617 5613 5610 5605 5601 5598 5596 5596 5595 5594 5594 5596 5598 5600 5603 5607 5610 5614 5619 5626 5632 5636 5642 5648 5656 5663 5669 5671 5676 5676 5675 5673
5649 5646 5644 5637 5640 5635 5639 5630 5625 5627 5625 5622 5620 5619 5615 5611 5610 5607 5602 5597 5592 5588 5585 5582 5581 5580 5580 5580 5581 5582 5584 5586 5590 5592 5596 5601 5606 5612 5616 5621 5627 5636 5645 5652 5656 5663 5665 5665 5670
5641 5639 5636 5631 5628 5625 5623 5621 5618 5617 5615 5613 5610 5606 5604 5601 5600 5597 5593 5589 5585 5581 5577 5574 5572 5570 5568 5567 5567 5567 5569 5571 5574 5576 5579 5583 5587 5593 5597 5602 5608 5615 5626 5634 5639 5647 5651 5655 5660
5630 5628 5624 5622 5619 5615 5611 5610 5612 5609 5607 5603 5601 5599 5597 5596 5594 5591 5587 5582 5577 5574 5572 5569 5566 5563 5560 5558 5556 5557 5558 5562 5566 5568 5569 5570 5572 5572 5574 5579 5587 5594 5607 5617 5624 5631 5633 5640 5647
5620 5616 5614 5609 5607 5606 5603 5599 5600 5598 5597 5596 5595 5592 5588 5588 5588 5583 5579 5575 5572 5570 5569 5566 5562 5557 5554 5551 5549 5549 5552 5555 5559 5560 5560 5558 5557 5556 5559 5563 5570 5573 5584 5596 5607 5617 5618 5620 5632